| time (UTC) | temp F | wind direction | speed MPH | gust MPH | rain 1hr in | rain 24hr in | rain mn in | humidity % | barometer mb |
| 20260504050015 | 52 | 200 | 3.0 | 13.0 | 0.00 | 0.00 | 0.00 | 78 | 1019.1 |
| 20260504045512 | 52 | 263 | 3.0 | 12.0 | 0.00 | 0.00 | 0.00 | 79 | 1018.9 |
| 20260504045016 | 52 | 235 | 4.0 | 12.0 | 0.00 | 0.00 | 0.00 | 80 | 1018.9 |
| 20260504044530 | 52 | 201 | 4.0 | 13.0 | 0.00 | 0.00 | 0.00 | 79 | 1018.9 |
| 20260504044011 | 52 | 217 | 5.0 | 21.0 | 0.00 | 0.00 | 0.00 | 79 | 1018.9 |
| 20260504043510 | 52 | 254 | 6.0 | 21.0 | 0.00 | 0.00 | 0.00 | 79 | 1018.8 |
| 20260504043011 | 52 | 202 | 4.0 | 12.0 | 0.00 | 0.00 | 0.00 | 79 | 1018.7 |
| 20260504042509 | 52 | 200 | 4.0 | 12.0 | 0.00 | 0.00 | 0.00 | 79 | 1018.6 |
| 20260504042009 | 52 | 300 | 1.0 | 11.0 | 0.00 | 0.00 | 0.00 | 80 | 1018.6 |
| 20260504041507 | 52 | 205 | 3.0 | 11.0 | 0.00 | 0.00 | 0.00 | 80 | 1018.6 |
| 20260504041008 | 52 | 238 | 3.0 | 14.0 | 0.00 | 0.00 | 0.00 | 80 | 1018.5 |
| 20260504040006 | 52 | 340 | 2.0 | 11.0 | 0.00 | 0.00 | 0.00 | 80 | 1018.4 |
| 20260504035511 | 52 | 196 | 2.0 | 11.0 | 0.00 | 0.00 | 0.00 | 80 | 1018.3 |
| 20260504035006 | 52 | 340 | 0.0 | 11.0 | 0.00 | 0.00 | 0.00 | 80 | 1018.2 |
| 20260504034503 | 52 | 317 | 2.0 | 11.0 | 0.00 | 0.00 | 0.00 | 80 | 1018.1 |
| 20260504034003 | 53 | 224 | 3.0 | 11.0 | 0.00 | 0.00 | 0.00 | 80 | 1017.9 |
| 20260504033503 | 53 | 203 | 2.0 | 11.0 | 0.00 | 0.00 | 0.00 | 80 | 1017.8 |
| 20260504033002 | 53 | 225 | 2.0 | 10.0 | 0.00 | 0.00 | 0.00 | 80 | 1017.7 |
| 20260504032601 | 53 | 292 | 2.0 | 11.0 | 0.00 | 0.00 | 0.00 | 79 | 1017.7 |
| 20260504032059 | 53 | 316 | 4.0 | 11.0 | 0.00 | 0.00 | 0.00 | 79 | 1017.7 |
| 20260504031559 | 53 | 220 | 4.0 | 11.0 | 0.00 | 0.00 | 0.00 | 79 | 1017.4 |
| 20260504031059 | 53 | 262 | 4.0 | 11.0 | 0.00 | 0.00 | 0.00 | 78 | 1017.4 |
| 20260504030658 | 53 | 211 | 4.0 | 10.0 | 0.00 | 0.00 | 0.00 | 77 | 1017.3 |
| 20260504030058 | 53 | 194 | 3.0 | 14.0 | 0.00 | 0.00 | 0.00 | 77 | 1017.3 |
| 20260504025557 | 54 | 186 | 3.0 | 14.0 | 0.00 | 0.00 | 0.00 | 76 | 1017.3 |
| 20260504025056 | 54 | 205 | 5.0 | 13.0 | 0.00 | 0.00 | 0.00 | 75 | 1017.4 |
| 20260504024605 | 54 | 194 | 4.0 | 10.0 | 0.00 | 0.00 | 0.00 | 75 | 1017.3 |
| 20260504024055 | 54 | 220 | 1.0 | 9.0 | 0.00 | 0.00 | 0.00 | 75 | 1017.4 |
| 20260504023555 | 55 | 265 | 0.0 | 11.0 | 0.00 | 0.00 | 0.00 | 76 | 1017.3 |
| 20260504023055 | 55 | 191 | 2.0 | 11.0 | 0.00 | 0.00 | 0.00 | 75 | 1017.2 |
| 20260504022555 | 55 | 227 | 0.0 | 9.0 | 0.00 | 0.00 | 0.00 | 75 | 1017.3 |
| 20260504022059 | 55 | 170 | 3.0 | 12.0 | 0.00 | 0.00 | 0.00 | 74 | 1017.3 |
| 20260504021554 | 55 | 205 | 4.0 | 13.0 | 0.00 | 0.00 | 0.00 | 74 | 1017.2 |
| 20260504021054 | 55 | 257 | 5.0 | 13.0 | 0.00 | 0.00 | 0.00 | 73 | 1017.3 |
| 20260504020654 | 56 | 196 | 4.0 | 12.0 | 0.00 | 0.00 | 0.00 | 73 | 1017.2 |
| 20260504020054 | 56 | 191 | 3.0 | 13.0 | 0.00 | 0.00 | 0.00 | 73 | 1017.3 |
| 20260504015554 | 56 | 236 | 1.0 | 15.0 | 0.00 | 0.00 | 0.00 | 73 | 1017.2 |
| 20260504015056 | 56 | 239 | 7.0 | 15.0 | 0.00 | 0.00 | 0.00 | 72 | 1017.2 |
| 20260504014553 | 56 | 190 | 2.0 | 14.0 | 0.00 | 0.00 | 0.00 | 73 | 1017.1 |
| 20260504014056 | 56 | 253 | 3.0 | 14.0 | 0.00 | 0.00 | 0.00 | 73 | 1017.1 |
| 20260504013553 | 57 | 326 | 2.0 | 11.0 | 0.00 | 0.00 | 0.00 | 73 | 1017.1 |
| 20260504013053 | 57 | 328 | 3.0 | 11.0 | 0.00 | 0.00 | 0.00 | 72 | 1017.2 |
| 20260504012552 | 57 | 217 | 4.0 | 10.0 | 0.00 | 0.00 | 0.00 | 71 | 1017.1 |
| 20260504012051 | 57 | 228 | 3.0 | 12.0 | 0.00 | 0.00 | 0.00 | 70 | 1017.0 |
| 20260504011552 | 58 | 244 | 5.0 | 12.0 | 0.00 | 0.00 | 0.00 | 70 | 1016.8 |
| 20260504011050 | 58 | 185 | 3.0 | 12.0 | 0.00 | 0.00 | 0.00 | 71 | 1016.8 |
| 20260504010650 | 58 | 243 | 5.0 | 12.0 | 0.00 | 0.00 | 0.00 | 69 | 1016.9 |
| 20260504010056 | 58 | 205 | 5.0 | 12.0 | 0.00 | 0.00 | 0.00 | 69 | 1016.9 |
| 20260504005550 | 59 | 205 | 5.0 | 11.0 | 0.00 | 0.00 | 0.00 | 69 | 1016.9 |
| 20260504005050 | 59 | 207 | 5.0 | 11.0 | 0.00 | 0.00 | 0.00 | 68 | 1016.8 |
| 20260504004550 | 59 | 203 | 6.0 | 11.0 | 0.00 | 0.00 | 0.00 | 68 | 1016.8 |
| 20260504004050 | 60 | 186 | 6.0 | 12.0 | 0.00 | 0.00 | 0.00 | 66 | 1016.8 |
| 20260504003555 | 60 | 212 | 2.0 | 11.0 | 0.00 | 0.00 | 0.00 | 66 | 1016.8 |
| 20260504003051 | 61 | 316 | 1.0 | 10.0 | 0.00 | 0.00 | 0.00 | 65 | 1016.7 |
| 20260504002550 | 61 | 212 | 2.0 | 10.0 | 0.00 | 0.00 | 0.00 | 65 | 1016.7 |
| 20260504002050 | 61 | 217 | 0.0 | 6.0 | 0.00 | 0.00 | 0.00 | 64 | 1016.7 |
| 20260504001608 | 62 | 217 | 2.0 | 7.0 | 0.00 | 0.00 | 0.00 | 62 | 1016.7 |
| 20260504001050 | 63 | 314 | 0.0 | 6.0 | 0.00 | 0.00 | 0.00 | 62 | 1016.7 |
| 20260504000650 | 64 | 282 | 1.0 | 6.0 | 0.00 | 0.00 | 0.00 | 61 | 1016.6 |
| 20260504000050 | 64 | 288 | 1.0 | 7.0 | 0.00 | 0.00 | 0.00 | 62 | 1016.6 |
| 20260503235550 | 64 | 294 | 0.0 | 7.0 | 0.00 | 0.00 | 0.00 | 61 | 1016.5 |
| 20260503235054 | 64 | 279 | 1.0 | 7.0 | 0.00 | 0.00 | 0.00 | 60 | 1016.4 |
| 20260503234550 | 64 | 221 | 0.0 | 8.0 | 0.00 | 0.00 | 0.00 | 62 | 1016.4 |
| 20260503234049 | 64 | 274 | 2.0 | 8.0 | 0.00 | 0.00 | 0.00 | 62 | 1016.3 |
| 20260503233548 | 64 | 280 | 2.0 | 8.0 | 0.00 | 0.00 | 0.00 | 63 | 1016.3 |
| 20260503233049 | 64 | 300 | 1.0 | 6.0 | 0.00 | 0.00 | 0.00 | 63 | 1016.2 |
| 20260503232553 | 64 | 306 | 1.0 | 6.0 | 0.00 | 0.00 | 0.00 | 65 | 1016.1 |
| 20260503232048 | 63 | 274 | 1.0 | 9.0 | 0.00 | 0.00 | 0.00 | 67 | 1016.1 |
| 20260503231549 | 62 | 241 | 2.0 | 10.0 | 0.00 | 0.00 | 0.00 | 69 | 1016.0 |
| 20260503231051 | 62 | 292 | 2.0 | 10.0 | 0.00 | 0.00 | 0.00 | 68 | 1016.0 |
| 20260503230648 | 63 | 301 | 1.0 | 9.0 | 0.00 | 0.00 | 0.00 | 66 | 1016.1 |
| 20260503230049 | 63 | 338 | 1.0 | 9.0 | 0.00 | 0.00 | 0.00 | 67 | 1016.2 |
| 20260503225549 | 63 | 277 | 2.0 | 9.0 | 0.00 | 0.00 | 0.00 | 67 | 1016.1 |
| 20260503225049 | 64 | 282 | 2.0 | 9.0 | 0.00 | 0.00 | 0.00 | 65 | 1016.0 |
| 20260503224549 | 64 | 304 | 0.0 | 8.0 | 0.00 | 0.00 | 0.00 | 67 | 1016.0 |
| 20260503224049 | 65 | 261 | 2.0 | 8.0 | 0.00 | 0.00 | 0.00 | 64 | 1015.9 |
| 20260503223549 | 66 | 276 | 1.0 | 7.0 | 0.00 | 0.00 | 0.00 | 64 | 1015.9 |
| 20260503223048 | 65 | 230 | 0.0 | 5.0 | 0.00 | 0.00 | 0.00 | 66 | 1015.9 |
| 20260503222551 | 65 | 282 | 0.0 | 7.0 | 0.00 | 0.00 | 0.00 | 66 | 1016.0 |
| 20260503222047 | 65 | 201 | 1.0 | 7.0 | 0.00 | 0.00 | 0.00 | 65 | 1016.0 |
| 20260503221547 | 64 | 255 | 0.0 | 7.0 | 0.00 | 0.00 | 0.00 | 65 | 1016.0 |
| 20260503221050 | 65 | 301 | 1.0 | 6.0 | 0.00 | 0.00 | 0.00 | 64 | 1016.0 |
| 20260503220647 | 65 | 294 | 0.0 | 5.0 | 0.00 | 0.00 | 0.00 | 65 | 1016.1 |
| 20260503220104 | 65 | 314 | 0.0 | 6.0 | 0.00 | 0.00 | 0.00 | 67 | 1016.1 |
| 20260503215545 | 64 | 271 | 0.0 | 6.0 | 0.00 | 0.00 | 0.00 | 65 | 1016.1 |
| 20260503215043 | 64 | 268 | 0.0 | 5.0 | 0.00 | 0.00 | 0.00 | 67 | 1016.1 |
| 20260503214545 | 63 | 330 | 1.0 | 7.0 | 0.00 | 0.00 | 0.00 | 66 | 1016.2 |
| 20260503214048 | 63 | 301 | 0.0 | 8.0 | 0.00 | 0.00 | 0.00 | 68 | 1016.2 |
| 20260503213543 | 63 | 305 | 0.0 | 8.0 | 0.00 | 0.00 | 0.00 | 67 | 1016.1 |
| 20260503213047 | 62 | 253 | 0.0 | 5.0 | 0.00 | 0.00 | 0.00 | 70 | 1016.1 |
| 20260503212543 | 62 | 262 | 1.0 | 7.0 | 0.00 | 0.00 | 0.00 | 68 | 1016.1 |
| 20260503212042 | 62 | 303 | 2.0 | 8.0 | 0.00 | 0.00 | 0.00 | 69 | 1016.2 |
| 20260503211559 | 62 | 294 | 0.0 | 6.0 | 0.00 | 0.00 | 0.00 | 68 | 1016.2 |
| 20260503211047 | 62 | 299 | 1.0 | 5.0 | 0.00 | 0.00 | 0.00 | 68 | 1016.2 |
| 20260503210643 | 62 | 311 | 0.0 | 6.0 | 0.00 | 0.00 | 0.00 | 68 | 1016.3 |
| 20260503210043 | 62 | 311 | 0.0 | 6.0 | 0.00 | 0.00 | 0.00 | 68 | 1016.3 |
| 20260503205543 | 62 | 278 | 0.0 | 6.0 | 0.00 | 0.00 | 0.00 | 68 | 1016.3 |
| 20260503205044 | 62 | 216 | 1.0 | 6.0 | 0.00 | 0.00 | 0.00 | 66 | 1016.3 |
| 20260503204542 | 62 | 283 | 0.0 | 5.0 | 0.00 | 0.00 | 0.00 | 67 | 1016.3 |
| 20260503204042 | 63 | 336 | 1.0 | 6.0 | 0.00 | 0.00 | 0.00 | 67 | 1016.4 |
| 20260503203542 | 62 | 283 | 0.0 | 7.0 | 0.00 | 0.00 | 0.00 | 69 | 1016.5 |
| 20260503203043 | 63 | 275 | 1.0 | 7.0 | 0.00 | 0.00 | 0.00 | 67 | 1016.5 |
| 20260503202543 | 63 | 303 | 0.0 | 3.0 | 0.00 | 0.00 | 0.00 | 67 | 1016.4 |
| 20260503202042 | 64 | 313 | 0.0 | 3.0 | 0.00 | 0.00 | 0.00 | 66 | 1016.4 |
| 20260503201542 | 63 | 344 | 0.0 | 1.0 | 0.00 | 0.00 | 0.00 | 67 | 1016.5 |
| 20260503201042 | 63 | 2 | 0.0 | 1.0 | 0.00 | 0.00 | 0.00 | 67 | 1016.5 |
| 20260503200642 | 63 | 95 | 0.0 | 4.0 | 0.00 | 0.00 | 0.00 | 66 | 1016.6 |
| 20260503200043 | 63 | 96 | 0.0 | 4.0 | 0.00 | 0.00 | 0.00 | 66 | 1016.6 |
| 20260503195541 | 64 | 100 | 0.0 | 5.0 | 0.00 | 0.00 | 0.00 | 67 | 1016.7 |
| 20260503195040 | 63 | 100 | 0.0 | 5.0 | 0.00 | 0.00 | 0.00 | 66 | 1016.7 |
| 20260503194540 | 63 | 110 | 0.0 | 5.0 | 0.00 | 0.00 | 0.00 | 67 | 1016.7 |
| 20260503194040 | 63 | 125 | 0.0 | 5.0 | 0.00 | 0.00 | 0.00 | 68 | 1016.7 |
| 20260503193539 | 63 | 182 | 0.0 | 5.0 | 0.00 | 0.00 | 0.00 | 68 | 1016.7 |
| 20260503193043 | 63 | 109 | 0.0 | 0.0 | 0.00 | 0.00 | 0.00 | 67 | 1016.7 |
| 20260503192537 | 62 | 103 | 0.0 | 0.0 | 0.00 | 0.00 | 0.00 | 69 | 1016.7 |
| 20260503192038 | 62 | 87 | 0.0 | 3.0 | 0.00 | 0.00 | 0.00 | 69 | 1016.8 |
| 20260503191538 | 62 | 84 | 0.0 | 3.0 | 0.00 | 0.00 | 0.00 | 70 | 1016.8 |
| 20260503191036 | 62 | 98 | 0.0 | 3.0 | 0.00 | 0.00 | 0.00 | 69 | 1016.9 |
| 20260503190635 | 61 | 170 | 0.0 | 2.0 | 0.00 | 0.00 | 0.00 | 71 | 1016.9 |
| 20260503190037 | 61 | 186 | 0.0 | 2.0 | 0.00 | 0.00 | 0.00 | 71 | 1016.9 |
| 20260503185534 | 60 | 185 | 0.0 | 3.0 | 0.00 | 0.00 | 0.00 | 71 | 1016.9 |
| 20260503185033 | 60 | 304 | 0.0 | 3.0 | 0.00 | 0.00 | 0.00 | 70 | 1017.0 |
| 20260503184533 | 60 | 316 | 0.0 | 5.0 | 0.00 | 0.00 | 0.00 | 72 | 1017.0 |
| 20260503184032 | 59 | 194 | 0.0 | 5.0 | 0.00 | 0.00 | 0.00 | 73 | 1017.0 |
| 20260503183532 | 59 | 225 | 0.0 | 4.0 | 0.00 | 0.00 | 0.00 | 73 | 1017.0 |
| 20260503183037 | 59 | 296 | 0.0 | 3.0 | 0.00 | 0.00 | 0.00 | 72 | 1016.9 |
| 20260503182531 | 59 | 239 | 0.0 | 4.0 | 0.00 | 0.00 | 0.00 | 72 | 1017.0 |
| 20260503182031 | 59 | 277 | 0.0 | 4.0 | 0.00 | 0.00 | 0.00 | 72 | 1017.0 |
| 20260503181559 | 59 | 228 | 0.0 | 4.0 | 0.00 | 0.00 | 0.00 | 74 | 1016.9 |
| 20260503181031 | 59 | 297 | 0.0 | 4.0 | 0.00 | 0.00 | 0.00 | 73 | 1016.8 |
| 20260503180631 | 59 | 297 | 0.0 | 3.0 | 0.00 | 0.00 | 0.00 | 74 | 1016.9 |
| 20260503180030 | 59 | 297 | 0.0 | 3.0 | 0.00 | 0.00 | 0.00 | 73 | 1016.9 |
| 20260503175529 | 59 | 307 | 0.0 | 3.0 | 0.00 | 0.00 | 0.00 | 73 | 1016.8 |
| 20260503175029 | 59 | 201 | 0.0 | 2.0 | 0.00 | 0.00 | 0.00 | 73 | 1016.8 |
| 20260503174527 | 58 | 192 | 0.0 | 4.0 | 0.00 | 0.00 | 0.00 | 75 | 1016.8 |
| 20260503174026 | 58 | 229 | 0.0 | 3.0 | 0.00 | 0.00 | 0.00 | 75 | 1016.8 |
| 20260503173525 | 57 | 167 | 0.0 | 5.0 | 0.00 | 0.00 | 0.00 | 77 | 1016.8 |
| 20260503173041 | 56 | 193 | 0.0 | 5.0 | 0.00 | 0.00 | 0.00 | 78 | 1016.9 |
| 20260503172522 | 56 | 189 | 0.0 | 2.0 | 0.00 | 0.00 | 0.00 | 79 | 1016.9 |
| 20260503172022 | 55 | 189 | 0.0 | 2.0 | 0.00 | 0.00 | 0.00 | 78 | 1016.8 |
| 20260503171521 | 55 | 188 | 0.0 | 5.0 | 0.00 | 0.00 | 0.00 | 80 | 1016.7 |
| 20260503171021 | 55 | 188 | 0.0 | 5.0 | 0.00 | 0.00 | 0.00 | 80 | 1016.8 |
| 20260503170621 | 55 | 175 | 1.0 | 3.0 | 0.00 | 0.00 | 0.00 | 79 | 1016.8 |
| 20260503151010 | 51 | 272 | 0.0 | 5.0 | 0.00 | 0.00 | 0.00 | 85 | 1015.9 |
| 20260503150612 | 51 | 299 | 0.0 | 5.0 | 0.00 | 0.00 | 0.00 | 85 | 1015.9 |
| 20260503131002 | 51 | 295 | 0.0 | 0.0 | 0.00 | 0.00 | 0.00 | 90 | 1014.5 |
| 20260503130601 | 51 | 295 | 0.0 | 0.0 | 0.00 | 0.00 | 0.00 | 90 | 1014.4 |
| 20260503110607 | 52 | 295 | 0.0 | 0.0 | 0.00 | 0.00 | 0.00 | 90 | 1014.3 |
| 20260503100107 | 52 | 295 | 0.0 | 0.0 | 0.00 | 0.00 | 0.00 | 87 | 1014.5 |
| 20260503081553 | 54 | 295 | 0.0 | 0.0 | 0.00 | 0.00 | 0.00 | 83 | 1015.2 |
| 20260503081049 | 54 | 295 | 0.0 | 0.0 | 0.00 | 0.00 | 0.00 | 83 | 1015.3 |
| 20260503080552 | 54 | 295 | 0.0 | 0.0 | 0.00 | 0.00 | 0.00 | 84 | 1015.3 |
| 20260503072544 | 54 | 295 | 0.0 | 0.0 | 0.00 | 0.00 | 0.00 | 83 | 1015.4 |
| 20260503072044 | 54 | 295 | 0.0 | 0.0 | 0.00 | 0.00 | 0.00 | 83 | 1015.6 |
| 20260503071546 | 55 | 295 | 0.0 | 0.0 | 0.00 | 0.00 | 0.00 | 83 | 1015.6 |
| 20260503071047 | 55 | 295 | 0.0 | 0.0 | 0.00 | 0.00 | 0.00 | 82 | 1015.5 |
| 20260503070543 | 55 | 295 | 0.0 | 0.0 | 0.00 | 0.00 | 0.00 | 83 | 1015.6 |